GW5845 Weather Reports


time (UTC)temp
C
wind
direction
speed
KPH
gust
KPH
rain 1hr
cm
rain 24hr
cm
rain mn
cm
humidity
%
barometer
mb
20260509201459 23 104 0.0 0.0 0.00 0.00 0.00 50 1007.0
20260509200957 21 85 0.0 0.0 0.00 0.00 0.00 50 1007.1
20260509200452 21 124 1.6 3.2 0.00 0.00 0.00 51 1007.2
20260509195949 21 99 0.0 0.0 0.00 0.00 0.00 53 1007.1
20260509195444 21 191 3.2 3.2 0.00 0.00 0.00 52 1007.2
20260509194944 21 105 1.6 1.6 0.00 0.00 0.00 50 1007.2
20260509194440 21 133 3.2 4.8 0.00 0.00 0.00 50 1007.3
20260509193937 21 137 1.6 3.2 0.00 0.00 0.00 52 1007.5
20260509193436 21 213 3.2 3.2 0.00 0.00 0.00 51 1007.4
20260509192933 22 183 11.3 11.3 0.00 0.00 0.00 50 1007.4
20260509192430 22 164 1.6 3.2 0.00 0.00 0.00 48 1007.8
20260509191925 22 337 1.6 3.2 0.00 0.00 0.00 49 1007.5
20260509191420 22 340 3.2 3.2 0.00 0.00 0.00 48 1007.8
20260509190916 22 212 8.0 11.3 0.00 0.00 0.00 51 1007.5
20260509190414 21 31 4.8 4.8 0.00 0.00 0.00 53 1007.6
20260509185911 21 88 0.0 0.0 0.00 0.00 0.00 53 1007.6
20260509185409 21 99 1.6 1.6 0.00 0.00 0.00 54 1007.6
20260509184905 21 86 0.0 1.6 0.00 0.00 0.00 53 1007.7
20260509184402 21 141 1.6 3.2 0.00 0.00 0.00 51 1007.7
20260509183859 22 114 4.8 9.7 0.00 0.00 0.00 53 1007.8
20260509183353 21 85 0.0 1.6 0.00 0.00 0.00 51 1007.8
20260509182849 21 231 3.2 3.2 0.00 0.00 0.00 54 1007.9
20260509182347 21 96 8.0 9.7 0.00 0.00 0.00 52 1008.0
20260509181844 20 107 3.2 3.2 0.00 0.00 0.00 53 1008.4
20260509181341 21 119 4.8 8.0 0.00 0.00 0.00 53 1008.4
20260509180839 21 100 8.0 11.3 0.00 0.00 0.00 53 1008.2
20260509180334 20 86 4.8 8.0 0.00 0.00 0.00 55 1008.5
20260509175832 20 61 4.8 8.0 0.00 0.00 0.00 54 1008.8
20260509175328 20 59 1.6 3.2 0.00 0.00 0.00 56 1008.8
20260509174824 20 37 8.0 11.3 0.00 0.00 0.00 54 1008.9
20260509174319 20 78 8.0 16.1 0.00 0.00 0.00 54 1008.6
20260509173816 20 19 4.8 8.0 0.00 0.00 0.00 55 1008.7
20260509173311 19 85 3.2 3.2 0.00 0.00 0.00 56 1008.8
20260509172807 19 88 3.2 3.2 0.00 0.00 0.00 55 1008.8
20260509172306 19 58 6.4 12.9 0.00 0.00 0.00 55 1008.7
20260509171800 19 39 12.9 16.1 0.00 0.00 0.00 54 1008.7
20260509171256 20 63 3.2 8.0 0.00 0.00 0.00 53 1008.5
20260509170753 19 40 8.0 9.7 0.00 0.00 0.00 51 1009.0
20260509170249 19 30 3.2 4.8 0.00 0.00 0.00 52 1009.1
20260509165748 19 30 4.8 8.0 0.00 0.00 0.00 51 1009.1
20260509165243 19 44 4.8 8.0 0.00 0.00 0.00 50 1009.1
20260509164739 20 36 8.0 11.3 0.00 0.00 0.00 50 1009.3
20260509164235 20 26 4.8 4.8 0.00 0.00 0.00 49 1009.0
20260509163733 20 33 1.6 3.2 0.00 0.00 0.00 51 1008.9
20260509163229 20 44 6.4 9.7 0.00 0.00 0.00 48 1009.2
20260509162727 20 23 4.8 8.0 0.00 0.00 0.00 50 1009.0
20260509162221 20 63 8.0 9.7 0.00 0.00 0.00 50 1009.1
20260509161717 20 50 4.8 8.0 0.00 0.00 0.00 49 1009.0
20260509161214 20 80 1.6 3.2 0.00 0.00 0.00 50 1009.0
20260509160709 20 63 1.6 1.6 0.00 0.00 0.00 47 1009.1
20260509160206 20 109 3.2 3.2 0.00 0.00 0.00 51 1008.8
20260509155701 20 111 1.6 1.6 0.00 0.00 0.00 52 1008.8
20260509155157 20 106 4.8 4.8 0.00 0.00 0.00 50 1008.8
20260509154653 20 76 0.0 1.6 0.00 0.00 0.00 53 1008.8
20260509154151 20 63 3.2 4.8 0.00 0.00 0.00 52 1008.8
20260509153648 21 47 4.8 4.8 0.00 0.00 0.00 50 1008.8
20260509153144 20 178 1.6 3.2 0.00 0.00 0.00 51 1008.8
20260509152640 19 111 0.0 0.0 0.00 0.00 0.00 57 1009.0
20260509152137 20 91 0.0 1.6 0.00 0.00 0.00 54 1008.9
20260509151634 18 209 4.8 4.8 0.00 0.00 0.00 54 1009.1
20260509151131 20 67 0.0 3.2 0.00 0.00 0.00 54 1009.1
20260509150629 18 64 1.6 1.6 0.00 0.00 0.00 54 1009.2
20260509150127 18 73 1.6 3.2 0.00 0.00 0.00 56 1009.2
20260509145623 18 173 0.0 0.0 0.00 0.00 0.00 59 1009.4
20260509145118 18 239 6.4 9.7 0.00 0.00 0.00 58 1009.5
20260509144615 18 206 4.8 8.0 0.00 0.00 0.00 55 1009.5
20260509144112 19 211 6.4 8.0 0.00 0.00 0.00 55 1009.2
20260509143609 20 14 1.6 3.2 0.00 0.00 0.00 53 1009.4
20260509143107 18 130 1.6 3.2 0.00 0.00 0.00 58 1009.4
20260509142602 18 193 4.8 4.8 0.00 0.00 0.00 57 1009.6
20260509142058 18 81 1.6 3.2 0.00 0.00 0.00 56 1009.7
20260509141555 18 242 4.8 8.0 0.00 0.00 0.00 58 1009.8
20260509141051 18 342 6.4 8.0 0.00 0.00 0.00 55 1009.6
20260509140548 17 206 0.0 1.6 0.00 0.00 0.00 58 1009.7
20260509140046 18 206 1.6 3.2 0.00 0.00 0.00 57 1010.1
20260509135543 17 206 4.8 8.0 0.00 0.00 0.00 61 1009.8
20260509135041 16 207 1.6 1.6 0.00 0.00 0.00 61 1009.9
20260509134537 16 207 0.0 1.6 0.00 0.00 0.00 64 1010.2
20260509134035 15 207 3.2 3.2 0.00 0.00 0.00 65 1010.2
20260509133532 15 207 1.6 1.6 0.00 0.00 0.00 64 1010.0
20260509133030 15 207 1.6 1.6 0.00 0.00 0.00 62 1010.0
20260509132528 15 207 1.6 3.2 0.00 0.00 0.00 64 1009.9
20260509132026 15 207 1.6 3.2 0.00 0.00 0.00 65 1009.8
20260509131521 15 207 3.2 3.2 0.00 0.00 0.00 64 1009.6
20260509131019 14 213 4.8 4.8 0.00 0.00 0.00 67 1009.7
20260509130514 14 217 3.2 3.2 0.00 0.00 0.00 66 1009.9
20260509130011 13 205 3.2 3.2 0.00 0.00 0.00 67 1009.7
20260509125508 13 205 0.0 0.0 0.00 0.00 0.00 69 1010.0
20260509125004 13 205 1.6 1.6 0.00 0.00 0.00 69 1009.8
20260509124501 13 205 1.6 1.6 0.00 0.00 0.00 69 1010.0
20260509123958 13 214 1.6 3.2 0.00 0.00 0.00 71 1009.8
20260509123456 13 196 6.4 8.0 0.00 0.00 0.00 71 1010.1
20260509122951 12 193 4.8 4.8 0.00 0.00 0.00 70 1010.1
20260509122448 12 195 3.2 3.2 0.00 0.00 0.00 71 1009.9
20260509121945 12 196 1.6 1.6 0.00 0.00 0.00 72 1009.9
20260509121442 12 195 3.2 3.2 0.00 0.00 0.00 71 1010.0
20260509120940 12 195 4.8 4.8 0.00 0.00 0.00 70 1010.0
20260509120438 12 195 3.2 3.2 0.00 0.00 0.00 70 1010.1
20260509115935 12 195 1.6 3.2 0.00 0.00 0.00 71 1010.0
20260509115432 12 195 4.8 4.8 0.00 0.00 0.00 70 1010.0
20260509114930 12 195 1.6 3.2 0.00 0.00 0.00 72 1010.0
20260509114428 12 195 4.8 4.8 0.00 0.00 0.00 71 1009.9
20260509113928 12 196 4.8 4.8 0.00 0.00 0.00 71 1009.9
20260509113424 12 200 3.2 3.2 0.00 0.00 0.00 71 1009.7
20260509112921 12 202 4.8 4.8 0.00 0.00 0.00 72 1009.8
20260509112419 12 232 14.5 17.7 0.00 0.00 0.00 71 1009.8
20260509111915 12 176 14.5 14.5 0.00 0.00 0.00 71 1009.7
20260509111412 12 191 6.4 8.0 0.00 0.00 0.00 69 1009.7
20260509110910 12 203 4.8 4.8 0.00 0.00 0.00 69 1009.6
20260509110405 12 206 6.4 8.0 0.00 0.00 0.00 67 1009.7
20260509105904 12 213 4.8 4.8 0.00 0.00 0.00 72 1009.5
20260509105402 12 209 4.8 4.8 0.00 0.00 0.00 70 1009.6
20260509104858 12 203 4.8 4.8 0.00 0.00 0.00 73 1009.6
20260509104355 12 202 4.8 4.8 0.00 0.00 0.00 70 1009.5
20260509103853 11 204 4.8 4.8 0.00 0.00 0.00 72 1009.6
20260509103350 12 204 4.8 4.8 0.00 0.00 0.00 70 1009.7
20260509102849 12 221 4.8 4.8 0.00 0.00 0.00 70 1009.7
20260509102346 11 220 4.8 4.8 0.00 0.00 0.00 71 1009.7
20260509101841 11 209 4.8 4.8 0.00 0.00 0.00 72 1009.8
20260509101337 11 204 4.8 4.8 0.00 0.00 0.00 72 1009.8
20260509100836 11 199 4.8 4.8 0.00 0.00 0.00 73 1009.5
20260509100333 11 193 3.2 3.2 0.00 0.00 0.00 74 1009.5
20260509095829 11 193 3.2 3.2 0.00 0.00 0.00 72 1009.3
20260509095326 12 193 1.6 1.6 0.00 0.00 0.00 70 1009.5
20260509094823 12 195 3.2 3.2 0.00 0.00 0.00 70 1009.7
20260509094320 11 196 4.8 4.8 0.00 0.00 0.00 70 1009.8
20260509093818 11 193 4.8 4.8 0.00 0.00 0.00 71 1009.7
20260509093315 11 192 4.8 4.8 0.00 0.00 0.00 72 1009.8
20260509092813 12 192 3.2 3.2 0.00 0.00 0.00 71 1009.8
20260509092311 12 192 1.6 3.2 0.00 0.00 0.00 69 1009.5
20260509091809 12 192 3.2 3.2 0.00 0.00 0.00 69 1009.5
20260509091305 12 192 1.6 1.6 0.00 0.00 0.00 68 1009.8
20260509090803 12 192 1.6 1.6 0.00 0.00 0.00 68 1009.4
20260509090259 12 192 1.6 3.2 0.00 0.00 0.00 67 1009.8
20260509085757 12 192 3.2 3.2 0.00 0.00 0.00 66 1009.6
20260509085254 12 192 1.6 1.6 0.00 0.00 0.00 66 1009.7
20260509084751 12 192 3.2 3.2 0.00 0.00 0.00 64 1009.7
20260509084247 12 192 4.8 4.8 0.00 0.00 0.00 65 1009.8
20260509083745 13 192 8.0 9.7 0.00 0.00 0.00 63 1009.9
20260509083242 13 194 4.8 8.0 0.00 0.00 0.00 61 1010.0
20260509082738 13 196 3.2 3.2 0.00 0.00 0.00 59 1010.0
20260509082235 13 208 4.8 4.8 0.00 0.00 0.00 59 1009.8
20260509081732 13 231 0.0 1.6 0.00 0.00 0.00 60 1009.9
20260509081230 13 202 0.0 1.6 0.00 0.00 0.00 59 1009.9
20260509080727 13 195 3.2 4.8 0.00 0.00 0.00 58 1009.9
20260509080225 13 140 1.6 3.2 0.00 0.00 0.00 59 1010.2
20260509075723 13 108 1.6 1.6 0.00 0.00 0.00 59 1010.1
20260509075220 13 137 3.2 3.2 0.00 0.00 0.00 59 1010.2
20260509074717 13 245 4.8 4.8 0.00 0.00 0.00 59 1010.1
20260509074215 13 172 3.2 3.2 0.00 0.00 0.00 60 1010.0
20260509073711 13 148 1.6 3.2 0.00 0.00 0.00 61 1010.3
20260509073207 13 195 4.8 4.8 0.00 0.00 0.00 60 1010.3
20260509072704 13 178 3.2 3.2 0.00 0.00 0.00 60 1010.2
20260509072201 13 116 1.6 3.2 0.00 0.00 0.00 59 1010.2
20260509071657 13 188 4.8 8.0 0.00 0.00 0.00 60 1010.3
20260509071155 13 127 1.6 1.6 0.00 0.00 0.00 60 1010.0
20260509070651 13 34 3.2 4.8 0.00 0.00 0.00 59 1010.2
20260509070147 13 253 6.4 8.0 0.00 0.00 0.00 58 1010.3
20260509065644 13 279 1.6 3.2 0.00 0.00 0.00 60 1010.5
20260509065140 13 335 4.8 8.0 0.00 0.00 0.00 59 1010.4
20260509064637 13 227 6.4 8.0 0.00 0.00 0.00 60 1010.6
20260509064135 13 289 3.2 3.2 0.00 0.00 0.00 60 1010.4
20260509063632 13 309 3.2 3.2 0.00 0.00 0.00 61 1010.4
20260509063128 13 232 3.2 4.8 0.00 0.00 0.00 61 1010.6
20260509062626 13 341 3.2 3.2 0.00 0.00 0.00 61 1010.8
20260509062122 13 357 1.6 3.2 0.00 0.00 0.00 61 1010.6
20260509061619 13 52 1.6 1.6 0.00 0.00 0.00 60 1010.4
20260509061117 13 265 3.2 3.2 0.00 0.00 0.00 60 1010.7
20260509060615 13 263 3.2 4.8 0.00 0.00 0.00 60 1010.6
20260509060110 13 311 1.6 3.2 0.00 0.00 0.00 59 1010.6
20260509055606 13 209 3.2 3.2 0.00 0.00 0.00 59 1011.0
20260509055102 13 148 1.6 3.2 0.00 0.00 0.00 60 1010.6
20260509054559 13 259 3.2 3.2 0.00 0.00 0.00 59 1010.8
20260509054057 13 61 1.6 1.6 0.00 0.00 0.00 59 1010.7
20260509053555 13 243 8.0 9.7 0.00 0.00 0.00 58 1011.0
20260509053051 13 271 3.2 4.8 0.00 0.00 0.00 59 1011.1
20260509052549 14 265 8.0 9.7 0.00 0.00 0.00 58 1010.8
20260509052047 14 268 6.4 9.7 0.00 0.00 0.00 57 1010.8
20260509051545 14 234 4.8 4.8 0.00 0.00 0.00 57 1010.8
20260509051041 15 224 9.7 11.3 0.00 0.00 0.00 57 1010.8
20260509050538 15 212 3.2 3.2 0.00 0.00 0.00 57 1011.1
20260509050034 15 247 3.2 3.2 0.00 0.00 0.00 57 1011.0
20260509045532 15 195 6.4 9.7 0.00 0.00 0.00 57 1010.8
20260509045029 15 252 9.7 11.3 0.00 0.00 0.00 57 1010.8
20260509044527 15 206 1.6 1.6 0.00 0.00 0.00 57 1010.7
20260509044024 15 239 11.3 14.5 0.00 0.00 0.00 56 1010.7
20260509043520 15 221 3.2 4.8 0.00 0.00 0.00 56 1010.6
20260509043016 15 224 4.8 4.8 0.00 0.00 0.00 57 1011.1
20260509042512 15 229 1.6 3.2 0.00 0.00 0.00 58 1010.6
20260509042008 15 234 3.2 3.2 0.00 0.00 0.00 57 1011.0
20260509041505 15 222 1.6 1.6 0.00 0.00 0.00 57 1011.1
20260509041003 15 246 0.0 0.0 0.00 0.00 0.00 58 1010.8
20260509040501 15 209 3.2 3.2 0.00 0.00 0.00 58 1011.0
20260509035957 15 235 1.6 1.6 0.00 0.00 0.00 57 1011.1
20260509035454 15 177 1.6 1.6 0.00 0.00 0.00 57 1010.7
20260509034951 15 223 4.8 4.8 0.00 0.00 0.00 57 1010.6
20260509034449 15 97 0.0 0.0 0.00 0.00 0.00 57 1010.8
20260509033946 15 237 4.8 8.0 0.00 0.00 0.00 56 1010.7
20260509033443 15 234 4.8 4.8 0.00 0.00 0.00 56 1011.2
20260509032939 15 280 8.0 9.7 0.00 0.00 0.00 56 1011.0
20260509032437 15 191 1.6 1.6 0.00 0.00 0.00 57 1011.0
20260509031934 15 232 3.2 4.8 0.00 0.00 0.00 57 1011.0
20260509031432 15 60 1.6 1.6 0.00 0.00 0.00 57 1010.7
20260509030929 15 202 3.2 3.2 0.00 0.00 0.00 58 1011.1
20260509030427 15 134 1.6 1.6 0.00 0.00 0.00 58 1010.7
20260509025924 14 232 4.8 4.8 0.00 0.00 0.00 58 1011.0
20260509025419 13 150 1.6 3.2 0.00 0.00 0.00 59 1011.0
20260509024914 13 125 0.0 1.6 0.00 0.00 0.00 60 1011.0
20260509024411 13 49 1.6 3.2 0.00 0.00 0.00 63 1011.3
20260509023908 12 62 1.6 1.6 0.00 0.00 0.00 65 1011.1
20260509023405 12 23 1.6 1.6 0.00 0.00 0.00 65 1011.3
20260509022902 12 56 1.6 1.6 0.00 0.00 0.00 64 1011.2
20260509022359 12 105 1.6 1.6 0.00 0.00 0.00 64 1011.1
20260509021856 12 43 1.6 3.2 0.00 0.00 0.00 63 1011.1
20260509021353 12 29 1.6 3.2 0.00 0.00 0.00 64 1011.1
20260509020851 13 124 0.0 1.6 0.00 0.00 0.00 63 1011.1
20260509020349 13 124 0.0 1.6 0.00 0.00 0.00 60 1010.7
20260509015846 13 117 0.0 0.0 0.00 0.00 0.00 61 1011.0
20260509015344 14 57 1.6 1.6 0.00 0.00 0.00 59 1011.0
20260509014840 14 89 0.0 0.0 0.00 0.00 0.00 56 1011.0
20260509014337 15 28 1.6 1.6 0.00 0.00 0.00 57 1011.1
20260509013834 15 216 0.0 1.6 0.00 0.00 0.00 54 1010.8
20260509013330 16 218 0.0 1.6 0.00 0.00 0.00 53 1011.0
20260509012826 16 205 1.6 1.6 0.00 0.00 0.00 51 1010.8
20260509012323 15 266 4.8 4.8 0.00 0.00 0.00 53 1010.7
20260509011820 15 226 4.8 8.0 0.00 0.00 0.00 53 1010.7
20260509011312 14 69 0.0 1.6 0.00 0.00 0.00 56 1010.7
20260509010810 14 42 1.6 1.6 0.00 0.00 0.00 56 1010.5
20260509010307 14 48 1.6 1.6 0.00 0.00 0.00 55 1010.6
20260509005804 15 74 0.0 1.6 0.00 0.00 0.00 55 1010.7
20260509005306 15 53 1.6 1.6 0.00 0.00 0.00 56 1010.6
20260509004801 15 33 1.6 1.6 0.00 0.00 0.00 52 1010.6
20260509004258 16 45 1.6 1.6 0.00 0.00 0.00 51 1010.3
20260509003756 16 55 1.6 1.6 0.00 0.00 0.00 50 1010.4
20260509003253 16 210 1.6 1.6 0.00 0.00 0.00 49 1010.3
20260509002750 16 202 3.2 3.2 0.00 0.00 0.00 48 1010.3
20260509002248 17 202 1.6 3.2 0.00 0.00 0.00 47 1010.4
20260509001746 17 195 1.6 1.6 0.00 0.00 0.00 47 1010.2
20260509001241 17 195 3.2 3.2 0.00 0.00 0.00 46 1010.2
20260509000739 18 195 3.2 3.2 0.00 0.00 0.00 43 1010.3
20260509000236 18 195 0.0 1.6 0.00 0.00 0.00 42 1010.0
20260508235733 18 207 4.8 4.8 0.00 0.00 0.00 41 1009.9
20260508235230 19 181 1.6 1.6 0.00 0.00 0.00 40 1009.9
20260508234727 20 222 3.2 4.8 0.00 0.00 0.00 40 1009.8
20260508234223 20 213 6.4 8.0 0.00 0.00 0.00 39 1010.0
20260508233717 20 181 8.0 9.7 0.00 0.00 0.00 38 1010.0
20260508233215 20 212 9.7 11.3 0.00 0.00 0.00 39 1010.0
20260508232712 20 198 11.3 14.5 0.00 0.00 0.00 37 1009.7
20260508232208 20 160 3.2 3.2 0.00 0.00 0.00 37 1009.5
20260508231706 20 232 11.3 12.9 0.00 0.00 0.00 37 1009.6
20260508231203 20 219 6.4 8.0 0.00 0.00 0.00 38 1009.7
20260508230700 20 191 6.4 8.0 0.00 0.00 0.00 38 1009.8
20260508230156 20 200 3.2 3.2 0.00 0.00 0.00 39 1009.9
20260508225654 20 188 6.4 8.0 0.00 0.00 0.00 36 1009.6
20260508225150 21 175 12.9 16.1 0.00 0.00 0.00 36 1009.7
20260508224648 21 191 6.4 8.0 0.00 0.00 0.00 35 1009.9
20260508224145 21 165 4.8 4.8 0.00 0.00 0.00 34 1009.6
20260508223643 21 189 4.8 4.8 0.00 0.00 0.00 34 1009.7
20260508223140 21 177 8.0 8.0 0.00 0.00 0.00 34 1009.6
20260508222637 21 88 0.0 1.6 0.00 0.00 0.00 38 1009.7
20260508222134 21 87 0.0 1.6 0.00 0.00 0.00 35 1009.8
20260508221630 21 89 0.0 1.6 0.00 0.00 0.00 35 1009.8
20260508221126 21 73 0.0 1.6 0.00 0.00 0.00 36 1009.6
20260508220623 21 249 0.0 0.0 0.00 0.00 0.00 35 1009.6
20260508220119 22 244 9.7 11.3 0.00 0.00 0.00 34 1009.4
20260508215616 22 160 3.2 3.2 0.00 0.00 0.00 32 1009.3
20260508215113 23 141 1.6 1.6 0.00 0.00 0.00 36 1009.5
20260508214610 22 100 1.6 1.6 0.00 0.00 0.00 33 1009.7
20260508214107 22 245 4.8 4.8 0.00 0.00 0.00 34 1009.7
20260508213604 22 279 8.0 11.3 0.00 0.00 0.00 33 1009.7
20260508213100 22 332 3.2 3.2 0.00 0.00 0.00 32 1009.5
20260508212556 22 338 8.0 11.3 0.00 0.00 0.00 33 1009.7
20260508212053 22 263 6.4 9.7 0.00 0.00 0.00 36 1009.8
20260508211548 22 42 1.6 1.6 0.00 0.00 0.00 36 1009.9
20260508211045 22 327 6.4 8.0 0.00 0.00 0.00 31 1009.8
20260508210541 22 56 1.6 1.6 0.00 0.00 0.00 32 1009.9
20260508210039 22 270 3.2 4.8 0.00 0.00 0.00 34 1009.8
20260508205536 22 330 3.2 4.8 0.00 0.00 0.00 36 1010.1
20260508205032 22 261 11.3 12.9 0.00 0.00 0.00 31 1009.8
20260508204529 22 302 3.2 3.2 0.00 0.00 0.00 32 1010.0
20260508204025 22 208 4.8 4.8 0.00 0.00 0.00 33 1010.2
20260508203521 21 220 3.2 3.2 0.00 0.00 0.00 32 1010.2
20260508203017 22 112 3.2 3.2 0.00 0.00 0.00 34 1010.2
20260508202514 22 316 6.4 9.7 0.00 0.00 0.00 32 1010.3
20260508202011 22 24 6.4 12.9 0.00 0.00 0.00 35 1010.0